Content
SEND FEEDBACK

Daily
Averages
Monthly
Summary
United States of America

GARRISON, UTAH


Home > North America > United States > Utah
Elevation: 4530 feet     Latitude: 38 44N     Longitude: 113 13W

WEATHER
 
SELECT A DAY
Number of Records: 181,601;   Date Range: 8/1/96 - 11/27/14
 
SHARE

PRINT THIS DATA

[ ← Previous Day ]
WEATHER ALMANAC - JANUARY 23, 2013
[ Next Day → ]
[ °C ]   °F
Weather ElementAverageHighLow
Temperature20.2 °F34 °F (11:52 pm)-2 °F (1:52 am)
Dewpoint13.3 °F25 °F (11:52 pm)-7.1 °F (1:52 am)
Humidity75.3 %84 % (3:52 am)64 % (12:52 pm)
Barometer30.43 in30.52 in (8:52 am)30.28 in (11:52 pm)
Wind Speed9 mph13.8 mph (3:52 am)
Weather ElementAverage
Visibility8.7 mi
Wind DirectionSSW (190.9 °)

Weather ElementTotal
Precipitation---
Heating Degree Days49 (Base 65)
Averaged from 23 records on January 23, 2013
WEATHER CONDITIONS BREAKOUT
WIND DIRECTION BREAKOUT
WEATHER BY HOUR - JANUARY 23, 2013
[ °C ]   °F
Local TimeTemperatureDewpointHumidityBarometerVisibilityWind DirectionWind SpeedGust SpeedPrecipitationEventsConditions
1:52 AM-2.0 °F-7.1 °F79 %30.51 in7.0 miSouth (170°)8.1 mphClear
2:52 AM1.9 °F-2.0 °F83 %30.49 in5.0 miSW (220°)5.8 mphClear
3:52 AM5.0 °F1.0 °F84 %30.48 in6.0 miSSW (210°)13.8 mphClear
4:52 AM5.0 °F1.0 °F84 %30.46 in7.0 miSSW (200°)8.1 mphClear
5:52 AM3.9 °F0.0 °F84 %30.50 in8.0 miSW (220°)9.2 mphClear
6:52 AM7.0 °F1.9 °F80 %30.51 in8.0 miSouth (180°)4.6 mphClear
7:52 AM9.0 °F3.9 °F80 %30.51 in6.0 miSouth (180°)11.5 mphHaze
8:52 AM9.0 °F5.0 °F84 %30.52 in6.0 miSSW (210°)5.8 mphClear
9:52 AM12.0 °F7.0 °F80 %30.52 in7.0 miSSW (200°)5.8 mphClear
10:52 AM18.0 °F12.0 °F78 %30.51 in10.0 miSouth (190°)10.4 mphClear
11:52 AM23.0 °F15.1 °F72 %30.48 in10.0 miSouth (180°)12.7 mphClear
12:52 PM30.0 °F19.0 °F64 %30.44 in10.0 miSouth (170°)11.5 mphClear
1:52 PM28.9 °F19.0 °F67 %30.43 in10.0 miSSW (200°)12.7 mphClear
2:52 PM30.9 °F19.9 °F64 %30.38 in10.0 miSouth (170°)13.8 mphClear
3:52 PM30.9 °F21.0 °F67 %30.37 in10.0 miSouth (180°)9.2 mphClear
4:52 PM30.0 °F21.9 °F72 %30.36 in10.0 miSouth (190°)6.9 mphClear
5:52 PM32.0 °F21.9 °F66 %30.35 in10.0 miSouth (190°)10.4 mphClear
6:52 PM28.9 °F23.0 °F78 %30.37 in10.0 miSouth (180°)10.4 mphClear
7:52 PM30.9 °F24.1 °F76 %30.35 in10.0 miSSW (200°)4.6 mphClear
8:52 PM30.9 °F24.1 °F76 %30.35 in10.0 miSouth (190°)9.2 mphPartly Cloudy
9:52 PM33.1 °F24.1 °F70 %30.33 in10.0 miSouth (190°)6.9 mphClear
10:52 PM32.0 °F24.1 °F73 %30.33 in10.0 miSSE (150°)6.9 mphScattered Clouds
11:52 PM34.0 °F25.0 °F70 %30.28 in10.0 miSW (220°)8.1 mphMostly Cloudy
Hourly data recorded from KMLF, located miles away from Garrison, Utah







STORIES FROM OUR PARTNERS